Regional Weather Roundup
Issued by NWS

Home | Current Version | Previous Version | Graphics & Text | Print | Product List | Glossary On
Versions: 1 2 3 4 5 6 7 8 9 10 11 12 13 14 15 16 17 18 19 20 21 22 23 24 25 26 27 28
000
ASUS45 KBOI 160410
RWRID
WEATHER ROUNDUP FOR IDAHO
NATIONAL WEATHER SERVICE BOISE ID
1000 PM MDT TUE APR 15 2014

NOTE: "FAIR" INDICATES FEW OR NO CLOUDS BELOW 12000 FEET
WITH NO SIGNIFICANT WEATHER AND/OR OBSTRUCTIONS TO VISIBILITY

IDZ012-014-160500-
SOUTHWEST IDAHO


CITY           SKY/WX    TMP DP  RH WIND       PRES   REMARKS
BOISE          PTCLDY    50  12  21 N12       29.99R
CALDWELL       PTCLDY    48  18  29 N9        30.02R
MOUNTAIN HOME  CLEAR     48  19  31 NW13      29.98R
$$

IDZ016-017-160500-
SOUTHCENTRAL IDAHO


CITY           SKY/WX    TMP DP  RH WIND       PRES   REMARKS
BURLEY         CLEAR     46  19  34 W15G24    29.91R
JEROME         CLEAR     43  18  36 W10       29.95R
TWIN FALLS     CLEAR     45  18  34 SW14      29.97R
$$

IDZ019>023-160500-
SOUTHEAST IDAHO


CITY           SKY/WX    TMP DP  RH WIND       PRES   REMARKS
IDAHO FALLS    PTCLDY    40  17  39 N12       29.89R WCI  33
POCATELLO      CLEAR     42  19  39 SE3       29.92R
REXBURG        PTCLDY    40  17  39 N5        29.89R
$$

IDZ006-010-011-018-031-032-160500-
CENTRAL IDAHO MOUNTAINS


CITY           SKY/WX    TMP DP  RH WIND       PRES   REMARKS
MCCALL         CLEAR     36  13  38 NW5       29.99R WCI  32
HAILEY         PTCLDY    43  16  33 NW15G29   29.93R
STANLEY          N/A     29  16  58 W3        29.98R
SALMON         PTCLDY    39  19  45 W3        29.98R
CHALLIS        PTCLDY    38  32  79 N9        29.95R WCI  31
$$

IDZ002-004-006-007-026-160500-
NORTHERN IDAHO


CITY           SKY/WX    TMP DP  RH WIND       PRES   REMARKS
LEWISTON       CLOUDY    54  20  26 SW8       29.98R
LOWELL           N/A     44  42  93 CALM      30.04R
COEUR D`ALENE  PTCLDY    39  34  81 E5        29.93R
MULLAN PASS    MOCLDY    27  26  96 SW3       29.91R
$$



USA.gov is the U.S. government's official web portal to all federal, state and local government web resources and services.